Wilmington, NC

4:24 AM EST on December 09, 2016 (GMT -0500)
Wilmington International

Weather History for KILM - October, 2013

Change the Weather History Date:

Monday, October 7, 2013

  Actual Average Record
Temperature  
Mean Temperature 79 °F 68 °F  
Max Temperature 84 °F 78 °F 91 °F (1911)
Min Temperature 73 °F 58 °F 38 °F (1935)
Degree Days  
Heating Degree Days 0 2  
Month to date heating degree days 0 8  
Since 1 July heating degree days 0 13  
Cooling Degree Days 14 4  
Month to date cooling degree days 58 36  
Year to date cooling degree days 1826 1953  
Growing Degree Days 28 (Base 50)    
Moisture  
Dew Point 72 °F    
Average Humidity 80    
Maximum Humidity 94    
Minimum Humidity 65    
Precipitation  
Precipitation 0.23 in 0.15 in 6.34 in (2005)
Month to date precipitation 0.24 1.18  
Year to date precipitation 43.71 47.99  
Sea Level Pressure  
Sea Level Pressure 29.90 in    
Wind  
Wind Speed 7 mph (SE)    
Max Wind Speed 21 mph    
Max Gust Speed 29 mph    
Visibility 8 miles    
Events Rain    
T = Trace of Precipitation, MM = Missing Value Source: NWS Daily Summary

Daily Weather History Graph

Daily Weather History Graph

Search for Another Location

Airport or City:

Trip Planner

Search our weather history database for the weather conditions in past years. The results will help you decide how hot, cold, wet, or windy it might be!

Date:

Astronomy

Oct. 07, 2013 Rise Set
Actual Time 7:10 AM EDT 6:47 PM EDT
Civil Twilight 6:45 AM EDT 7:12 PM EDT
Nautical Twilight 6:16 AM EDT 7:41 PM EDT
Astronomical Twilight 5:47 AM EDT 8:10 PM EDT
Moon 9:50 AM EDT (10/7) 8:39 PM EDT (10/7)
Length of Visible Light 12h 26m
Length of Day
11h 36m
Waxing Crescent, 8% of the Moon is Illuminated
Oct 7
Waxing Crescent
Oct 11
First Quarter
Oct 18
Full
Oct 26
Last Quarter
Nov 3
New

Hourly Weather History & Observations

Time (EDT) Temp. Heat Index Dew Point Humidity Pressure Visibility Wind Dir Wind Speed Gust Speed Precip Events Conditions
12:53 AM 75.9 °F - 72.0 °F 87% 29.95 in 10.0 mi SSE 3.5 mph - N/A   Clear
1:53 AM 75.0 °F - 72.0 °F 90% 29.95 in 10.0 mi South 5.8 mph - N/A   Clear
2:53 AM 75.9 °F - 71.1 °F 85% 29.93 in 10.0 mi SSE 5.8 mph - N/A   Clear
3:53 AM 75.9 °F - 71.1 °F 85% 29.92 in 10.0 mi South 6.9 mph - N/A   Clear
4:53 AM 75.9 °F - 71.1 °F 85% 29.92 in 10.0 mi South 6.9 mph - N/A   Clear
5:53 AM 75.9 °F - 70.0 °F 82% 29.91 in 10.0 mi South 8.1 mph - N/A   Clear
6:53 AM 75.0 °F - 70.0 °F 84% 29.91 in 10.0 mi SSE 6.9 mph - N/A   Clear
7:53 AM 77.0 °F - 71.1 °F 82% 29.91 in 10.0 mi South 8.1 mph - N/A   Clear
8:53 AM 80.1 °F 83.6 °F 71.1 °F 74% 29.91 in 10.0 mi SSE 10.4 mph 21.9 mph N/A   Clear
9:53 AM 82.0 °F 86.3 °F 71.1 °F 69% 29.93 in 10.0 mi SSE 12.7 mph 23.0 mph N/A   Scattered Clouds
10:53 AM 82.9 °F 87.0 °F 70.0 °F 65% 29.92 in 10.0 mi South 18.4 mph 28.8 mph N/A   Partly Cloudy
11:53 AM 81.0 °F 84.9 °F 71.1 °F 72% 29.91 in 10.0 mi South 12.7 mph - 0.00 in   Scattered Clouds
12:53 PM 81.0 °F 84.9 °F 71.1 °F 72% 29.90 in 10.0 mi South 11.5 mph 19.6 mph N/A   Mostly Cloudy
1:09 PM 78.8 °F - 71.6 °F 78% 29.89 in 2.5 mi South 10.4 mph 20.7 mph 0.01 in Rain Heavy Rain
1:18 PM 78.8 °F - 73.4 °F 83% 29.89 in 4.0 mi South 9.2 mph - 0.06 in Rain Light Rain
1:53 PM 79.0 °F - 73.9 °F 84% 29.87 in 10.0 mi SSE 4.6 mph - 0.06 in   Clear
2:53 PM 79.0 °F - 73.0 °F 82% 29.87 in 10.0 mi South 5.8 mph - 0.00 in   Mostly Cloudy
3:53 PM 78.1 °F - 73.0 °F 84% 29.87 in 10.0 mi South 4.6 mph - 0.00 in   Mostly Cloudy
4:53 PM 75.9 °F - 73.0 °F 91% 29.87 in 5.0 mi Calm Calm - 0.03 in Rain Light Rain
5:53 PM 75.9 °F - 73.0 °F 91% 29.87 in 7.0 mi Calm Calm - 0.01 in Rain Light Rain
6:53 PM 73.9 °F - 72.0 °F 93% 29.88 in 6.0 mi SSW 4.6 mph - 0.06 in Rain Light Rain
7:53 PM 73.9 °F - 72.0 °F 93% 29.85 in 9.0 mi SE 3.5 mph - 0.06 in Rain Light Rain
8:53 PM 73.0 °F - 71.1 °F 93% 29.88 in 10.0 mi NNW 10.4 mph - 0.00 in   Clear
9:17 PM 73.4 °F - 71.6 °F 94% 29.88 in 7.0 mi NNE 6.9 mph - N/A   Mostly Cloudy
9:31 PM 73.4 °F - 71.6 °F 94% 29.88 in 6.0 mi NNE 4.6 mph - N/A   Overcast
9:49 PM 73.4 °F - 71.6 °F 94% 29.89 in 7.0 mi NNE 5.8 mph - N/A   Overcast
9:53 PM 73.0 °F - 72.0 °F 96% 29.89 in 7.0 mi NNE 4.6 mph - N/A   Overcast
10:00 PM 73.4 °F - 71.6 °F 94% 29.90 in 7.0 mi NE 6.9 mph - N/A   Overcast
10:53 PM 73.0 °F - 71.1 °F 93% 29.91 in 7.0 mi NE 6.9 mph - 0.00 in Rain Light Rain
11:09 PM 73.4 °F - 71.6 °F 94% 29.91 in 5.0 mi NE 5.8 mph - 0.01 in Rain Light Rain
11:29 PM 73.4 °F - 71.6 °F 94% 29.90 in 9.0 mi NE 5.8 mph - 0.01 in Rain Light Rain
11:53 PM 73.0 °F - 71.1 °F 93% 29.91 in 9.0 mi NE 5.8 mph - 0.01 in   Mostly Cloudy